owner,sensor,date,latitude,longitude,air_temperature,qcFlag 
DISL,ioos:station:DISL:KATA:1,2011-11-01T00:00:00Z,30.2583,-88.2131,18.14,1111122 
DISL,ioos:station:DISL:KATA:1,2011-11-01T00:30:00Z,30.2583,-88.2131,17.91,1111122 
DISL,ioos:station:DISL:KATA:1,2011-11-01T01:00:00Z,30.2583,-88.2131,17.67,1111122 
DISL,ioos:station:DISL:KATA:1,2011-11-01T01:30:00Z,30.2583,-88.2131,17.43,1111122 
DISL,ioos:station:DISL:KATA:1,2011-11-01T02:00:00Z,30.2583,-88.2131,17.26,1111122 
DISL,ioos:station:DISL:KATA:1,2011-11-01T02:30:00Z,30.2583,-88.2131,17.33,1111122 
DISL,ioos:station:DISL:KATA:1,2011-11-01T03:00:00Z,30.2583,-88.2131,17.26,1111122 
DISL,ioos:station:DISL:KATA:1,2011-11-01T03:30:00Z,30.2583,-88.2131,17.06,1111122 
DISL,ioos:station:DISL:KATA:1,2011-11-01T04:00:00Z,30.2583,-88.2131,16.48,1111122 
DISL,ioos:station:DISL:KATA:1,2011-11-01T04:30:00Z,30.2583,-88.2131,16.35,1111122 
DISL,ioos:station:DISL:KATA:1,2011-11-01T05:00:00Z,30.2583,-88.2131,16.08,1111122 
DISL,ioos:station:DISL:KATA:1,2011-11-01T05:30:00Z,30.2583,-88.2131,15.75,1111122 
DISL,ioos:station:DISL:KATA:1,2011-11-01T06:00:00Z,30.2583,-88.2131,15.62,1111122 
DISL,ioos:station:DISL:KATA:1,2011-11-01T06:30:00Z,30.2583,-88.2131,15.25,1111122 
DISL,ioos:station:DISL:KATA:1,2011-11-01T07:00:00Z,30.2583,-88.2131,15.01,1111122 
DISL,ioos:station:DISL:KATA:1,2011-11-01T07:30:00Z,30.2583,-88.2131,14.53,1111122 
DISL,ioos:station:DISL:KATA:1,2011-11-01T08:00:00Z,30.2583,-88.2131,14.67,1111122 
DISL,ioos:station:DISL:KATA:1,2011-11-01T08:30:00Z,30.2583,-88.2131,14.63,1111122 
DISL,ioos:station:DISL:KATA:1,2011-11-01T09:00:00Z,30.2583,-88.2131,14.74,1111122 
DISL,ioos:station:DISL:KATA:1,2011-11-01T09:30:00Z,30.2583,-88.2131,14.94,1111122 
DISL,ioos:station:DISL:KATA:1,2011-11-01T10:00:00Z,30.2583,-88.2131,15.28,1111122 
DISL,ioos:station:DISL:KATA:1,2011-11-01T10:30:00Z,30.2583,-88.2131,15.89,1111122 
DISL,ioos:station:DISL:KATA:1,2011-11-01T11:00:00Z,30.2583,-88.2131,15.99,1111122 
DISL,ioos:station:DISL:KATA:1,2011-11-01T11:30:00Z,30.2583,-88.2131,15.55,1111122 
DISL,ioos:station:DISL:KATA:1,2011-11-01T12:00:00Z,30.2583,-88.2131,15.08,1111122 
DISL,ioos:station:DISL:KATA:1,2011-11-01T12:30:00Z,30.2583,-88.2131,15.35,1111122 
DISL,ioos:station:DISL:KATA:1,2011-11-01T13:00:00Z,30.2583,-88.2131,16.03,1111122 
DISL,ioos:station:DISL:KATA:1,2011-11-01T13:30:00Z,30.2583,-88.2131,16.18,1111122 
DISL,ioos:station:DISL:KATA:1,2011-11-01T14:00:00Z,30.2583,-88.2131,16.01,1111122 
DISL,ioos:station:DISL:KATA:1,2011-11-01T14:30:00Z,30.2583,-88.2131,16.28,1111122 
DISL,ioos:station:DISL:KATA:1,2011-11-01T15:00:00Z,30.2583,-88.2131,16.62,1111122 
DISL,ioos:station:DISL:KATA:1,2011-11-01T15:30:00Z,30.2583,-88.2131,16.92,1111122 
DISL,ioos:station:DISL:KATA:1,2011-11-01T16:00:00Z,30.2583,-88.2131,17.57,1111122 
DISL,ioos:station:DISL:KATA:1,2011-11-01T16:30:00Z,30.2583,-88.2131,18.17,1111122 
DISL,ioos:station:DISL:KATA:1,2011-11-01T17:00:00Z,30.2583,-88.2131,18.65,1111122 
DISL,ioos:station:DISL:KATA:1,2011-11-01T17:30:00Z,30.2583,-88.2131,18.58,1111122 
DISL,ioos:station:DISL:KATA:1,2011-11-01T18:00:00Z,30.2583,-88.2131,18.54,1111122 
DISL,ioos:station:DISL:KATA:1,2011-11-01T18:30:00Z,30.2583,-88.2131,18.43,1111122 
DISL,ioos:station:DISL:KATA:1,2011-11-01T19:00:00Z,30.2583,-88.2131,18.47,1111122 
DISL,ioos:station:DISL:KATA:1,2011-11-01T19:30:00Z,30.2583,-88.2131,18.61,1111122 
DISL,ioos:station:DISL:KATA:1,2011-11-01T20:00:00Z,30.2583,-88.2131,18.65,1111122 
DISL,ioos:station:DISL:KATA:1,2011-11-01T20:30:00Z,30.2583,-88.2131,18.71,1111122 
DISL,ioos:station:DISL:KATA:1,2011-11-01T21:00:00Z,30.2583,-88.2131,19.05,1111122 
DISL,ioos:station:DISL:KATA:1,2011-11-01T21:30:00Z,30.2583,-88.2131,19.09,1111122 
DISL,ioos:station:DISL:KATA:1,2011-11-01T22:00:00Z,30.2583,-88.2131,19.26,1111122 
DISL,ioos:station:DISL:KATA:1,2011-11-01T22:30:00Z,30.2583,-88.2131,19.29,1111122 
DISL,ioos:station:DISL:KATA:1,2011-11-01T23:00:00Z,30.2583,-88.2131,19.29,1111122 
DISL,ioos:station:DISL:KATA:1,2011-11-01T23:30:00Z,30.2583,-88.2131,19.29,1111122 
DISL,ioos:station:DISL:KATA:1,2011-11-02T00:00:00Z,30.2583,-88.2131,19.06,1111122 
DISL,ioos:station:DISL:KATA:1,2011-11-02T00:30:00Z,30.2583,-88.2131,18.45,1111122 
DISL,ioos:station:DISL:KATA:1,2011-11-02T01:00:00Z,30.2583,-88.2131,18.01,1111122 
DISL,ioos:station:DISL:KATA:1,2011-11-02T01:30:00Z,30.2583,-88.2131,17.94,1111122 
DISL,ioos:station:DISL:KATA:1,2011-11-02T02:00:00Z,30.2583,-88.2131,17.81,1111122 
DISL,ioos:station:DISL:KATA:1,2011-11-02T02:30:00Z,30.2583,-88.2131,17.6,1111122 
DISL,ioos:station:DISL:KATA:1,2011-11-02T03:00:00Z,30.2583,-88.2131,17.13,1111122 
DISL,ioos:station:DISL:KATA:1,2011-11-02T03:30:00Z,30.2583,-88.2131,17.03,1111122 
DISL,ioos:station:DISL:KATA:1,2011-11-02T04:00:00Z,30.2583,-88.2131,17.26,1111122 
DISL,ioos:station:DISL:KATA:1,2011-11-02T04:30:00Z,30.2583,-88.2131,17.06,1111122 
DISL,ioos:station:DISL:KATA:1,2011-11-02T05:00:00Z,30.2583,-88.2131,16.96,1111122 
DISL,ioos:station:DISL:KATA:1,2011-11-02T05:30:00Z,30.2583,-88.2131,16.82,1111122 
DISL,ioos:station:DISL:KATA:1,2011-11-02T06:00:00Z,30.2583,-88.2131,16.89,1111122 
DISL,ioos:station:DISL:KATA:1,2011-11-02T06:30:00Z,30.2583,-88.2131,16.96,1111122 
DISL,ioos:station:DISL:KATA:1,2011-11-02T07:00:00Z,30.2583,-88.2131,17.1,1111122 
DISL,ioos:station:DISL:KATA:1,2011-11-02T07:30:00Z,30.2583,-88.2131,17.33,1111122 
DISL,ioos:station:DISL:KATA:1,2011-11-02T08:00:00Z,30.2583,-88.2131,17.37,1111122 
DISL,ioos:station:DISL:KATA:1,2011-11-02T08:30:00Z,30.2583,-88.2131,16.96,1111122 
DISL,ioos:station:DISL:KATA:1,2011-11-02T09:00:00Z,30.2583,-88.2131,16.82,1111122 
DISL,ioos:station:DISL:KATA:1,2011-11-02T09:30:00Z,30.2583,-88.2131,16.66,1111122 
DISL,ioos:station:DISL:KATA:1,2011-11-02T10:00:00Z,30.2583,-88.2131,16.49,1111122 
DISL,ioos:station:DISL:KATA:1,2011-11-02T10:30:00Z,30.2583,-88.2131,16.21,1111122 
DISL,ioos:station:DISL:KATA:1,2011-11-02T11:00:00Z,30.2583,-88.2131,16.14,1111122 
DISL,ioos:station:DISL:KATA:1,2011-11-02T11:30:00Z,30.2583,-88.2131,15.84,1111122 
DISL,ioos:station:DISL:KATA:1,2011-11-02T12:00:00Z,30.2583,-88.2131,15.67,1111122 
DISL,ioos:station:DISL:KATA:1,2011-11-02T12:30:00Z,30.2583,-88.2131,15.75,1111122 
DISL,ioos:station:DISL:KATA:1,2011-11-02T13:00:00Z,30.2583,-88.2131,16.09,1111122 
DISL,ioos:station:DISL:KATA:1,2011-11-02T13:30:00Z,30.2583,-88.2131,16.28,1111122 
DISL,ioos:station:DISL:KATA:1,2011-11-02T14:00:00Z,30.2583,-88.2131,16.21,1111122 
DISL,ioos:station:DISL:KATA:1,2011-11-02T14:30:00Z,30.2583,-88.2131,16.35,1111122 
DISL,ioos:station:DISL:KATA:1,2011-11-02T15:00:00Z,30.2583,-88.2131,16.62,1111122 
DISL,ioos:station:DISL:KATA:1,2011-11-02T15:30:00Z,30.2583,-88.2131,18.01,1111122 
DISL,ioos:station:DISL:KATA:1,2011-11-02T16:00:00Z,30.2583,-88.2131,18.51,1111122 
DISL,ioos:station:DISL:KATA:1,2011-11-02T16:30:00Z,30.2583,-88.2131,18.71,1111122 
DISL,ioos:station:DISL:KATA:1,2011-11-02T17:00:00Z,30.2583,-88.2131,18.57,1111122 
DISL,ioos:station:DISL:KATA:1,2011-11-02T17:30:00Z,30.2583,-88.2131,18.7,1111122 
DISL,ioos:station:DISL:KATA:1,2011-11-02T18:00:00Z,30.2583,-88.2131,19.14,1111122 
DISL,ioos:station:DISL:KATA:1,2011-11-02T18:30:00Z,30.2583,-88.2131,19.31,1111122 
DISL,ioos:station:DISL:KATA:1,2011-11-02T19:00:00Z,30.2583,-88.2131,18.87,1111122 
DISL,ioos:station:DISL:KATA:1,2011-11-02T19:30:00Z,30.2583,-88.2131,18.91,1111122 
DISL,ioos:station:DISL:KATA:1,2011-11-02T20:00:00Z,30.2583,-88.2131,19.08,1111122 
DISL,ioos:station:DISL:KATA:1,2011-11-02T20:30:00Z,30.2583,-88.2131,19.15,1111122 
DISL,ioos:station:DISL:KATA:1,2011-11-02T21:00:00Z,30.2583,-88.2131,19.25,1111122 
DISL,ioos:station:DISL:KATA:1,2011-11-02T21:30:00Z,30.2583,-88.2131,19.59,1111122 
DISL,ioos:station:DISL:KATA:1,2011-11-02T22:00:00Z,30.2583,-88.2131,19.59,1111122 
DISL,ioos:station:DISL:KATA:1,2011-11-02T22:30:00Z,30.2583,-88.2131,19.45,1111122 
DISL,ioos:station:DISL:KATA:1,2011-11-02T23:00:00Z,30.2583,-88.2131,19.29,1111122 
DISL,ioos:station:DISL:KATA:1,2011-11-02T23:30:00Z,30.2583,-88.2131,19.09,1111122 
DISL,ioos:station:DISL:KATA:1,2011-11-03T00:00:00Z,30.2583,-88.2131,18.92,1111122 
DISL,ioos:station:DISL:KATA:1,2011-11-03T00:30:00Z,30.2583,-88.2131,18.92,1111122 
DISL,ioos:station:DISL:KATA:1,2011-11-03T01:00:00Z,30.2583,-88.2131,18.68,1111122 
DISL,ioos:station:DISL:KATA:1,2011-11-03T01:30:00Z,30.2583,-88.2131,18.75,1111122 
DISL,ioos:station:DISL:KATA:1,2011-11-03T02:00:00Z,30.2583,-88.2131,18.59,1111122 
DISL,ioos:station:DISL:KATA:1,2011-11-03T02:30:00Z,30.2583,-88.2131,18.45,1111122 
DISL,ioos:station:DISL:KATA:1,2011-11-03T03:00:00Z,30.2583,-88.2131,18.38,1111122 
DISL,ioos:station:DISL:KATA:1,2011-11-03T03:30:00Z,30.2583,-88.2131,18.35,1111122 
DISL,ioos:station:DISL:KATA:1,2011-11-03T04:00:00Z,30.2583,-88.2131,18.49,1111122 
DISL,ioos:station:DISL:KATA:1,2011-11-03T04:30:00Z,30.2583,-88.2131,20.56,1111122 
DISL,ioos:station:DISL:KATA:1,2011-11-03T05:00:00Z,30.2583,-88.2131,20.78,1111122 
DISL,ioos:station:DISL:KATA:1,2011-11-03T05:30:00Z,30.2583,-88.2131,20.85,1111122 
DISL,ioos:station:DISL:KATA:1,2011-11-03T06:00:00Z,30.2583,-88.2131,20.85,1111122 
DISL,ioos:station:DISL:KATA:1,2011-11-03T06:30:00Z,30.2583,-88.2131,20.84,1111122 
DISL,ioos:station:DISL:KATA:1,2011-11-03T07:00:00Z,30.2583,-88.2131,20.91,1111122 
DISL,ioos:station:DISL:KATA:1,2011-11-03T07:30:00Z,30.2583,-88.2131,20.94,1111122 
DISL,ioos:station:DISL:KATA:1,2011-11-03T08:00:00Z,30.2583,-88.2131,21.21,1111122 
DISL,ioos:station:DISL:KATA:1,2011-11-03T08:30:00Z,30.2583,-88.2131,21.21,1111122 
DISL,ioos:station:DISL:KATA:1,2011-11-03T09:00:00Z,30.2583,-88.2131,21.08,1111122 
DISL,ioos:station:DISL:KATA:1,2011-11-03T09:30:00Z,30.2583,-88.2131,21.32,1111122 
DISL,ioos:station:DISL:KATA:1,2011-11-03T10:00:00Z,30.2583,-88.2131,21.25,1111122 
DISL,ioos:station:DISL:KATA:1,2011-11-03T10:30:00Z,30.2583,-88.2131,21.18,1111122 
DISL,ioos:station:DISL:KATA:1,2011-11-03T11:00:00Z,30.2583,-88.2131,21.28,1111122 
DISL,ioos:station:DISL:KATA:1,2011-11-03T11:30:00Z,30.2583,-88.2131,21.32,1111122 
DISL,ioos:station:DISL:KATA:1,2011-11-03T12:00:00Z,30.2583,-88.2131,21.21,1111122 
DISL,ioos:station:DISL:KATA:1,2011-11-03T12:30:00Z,30.2583,-88.2131,21.32,1111122 
DISL,ioos:station:DISL:KATA:1,2011-11-03T13:00:00Z,30.2583,-88.2131,21.52,1111122 
DISL,ioos:station:DISL:KATA:1,2011-11-03T13:30:00Z,30.2583,-88.2131,21.68,1111122 
DISL,ioos:station:DISL:KATA:1,2011-11-03T14:00:00Z,30.2583,-88.2131,21.77,1111122 
DISL,ioos:station:DISL:KATA:1,2011-11-03T14:30:00Z,30.2583,-88.2131,21.67,1111122 
DISL,ioos:station:DISL:KATA:1,2011-11-03T15:00:00Z,30.2583,-88.2131,21.91,1111122 
DISL,ioos:station:DISL:KATA:1,2011-11-03T15:30:00Z,30.2583,-88.2131,22.51,1111122 
DISL,ioos:station:DISL:KATA:1,2011-11-03T16:00:00Z,30.2583,-88.2131,22.11,1111122 
DISL,ioos:station:DISL:KATA:1,2011-11-03T16:30:00Z,30.2583,-88.2131,21.91,1111122 
DISL,ioos:station:DISL:KATA:1,2011-11-03T17:00:00Z,30.2583,-88.2131,21.63,1111122 
DISL,ioos:station:DISL:KATA:1,2011-11-03T17:30:00Z,30.2583,-88.2131,22.14,1111122 
DISL,ioos:station:DISL:KATA:1,2011-11-03T18:00:00Z,30.2583,-88.2131,21.84,1111122 
DISL,ioos:station:DISL:KATA:1,2011-11-03T18:30:00Z,30.2583,-88.2131,21.77,1111122 
DISL,ioos:station:DISL:KATA:1,2011-11-03T19:00:00Z,30.2583,-88.2131,20.52,1111122 
DISL,ioos:station:DISL:KATA:1,2011-11-03T19:30:00Z,30.2583,-88.2131,20.52,1111122 
DISL,ioos:station:DISL:KATA:1,2011-11-03T20:00:00Z,30.2583,-88.2131,20.02,1111122 
DISL,ioos:station:DISL:KATA:1,2011-11-03T20:30:00Z,30.2583,-88.2131,19.95,1111122 
DISL,ioos:station:DISL:KATA:1,2011-11-03T21:00:00Z,30.2583,-88.2131,16.7,1111122 
DISL,ioos:station:DISL:KATA:1,2011-11-03T21:30:00Z,30.2583,-88.2131,16.1,1111122 
DISL,ioos:station:DISL:KATA:1,2011-11-03T22:00:00Z,30.2583,-88.2131,15.87,1111122 
DISL,ioos:station:DISL:KATA:1,2011-11-03T22:30:00Z,30.2583,-88.2131,16.01,1111122 
DISL,ioos:station:DISL:KATA:1,2011-11-03T23:00:00Z,30.2583,-88.2131,15.02,1111122 
DISL,ioos:station:DISL:KATA:1,2011-11-03T23:30:00Z,30.2583,-88.2131,14.82,1111122 
DISL,ioos:station:DISL:KATA:1,2011-11-04T00:00:00Z,30.2583,-88.2131,14.84,1111122 
DISL,ioos:station:DISL:KATA:1,2011-11-04T00:30:00Z,30.2583,-88.2131,14.4,1111122 
DISL,ioos:station:DISL:KATA:1,2011-11-04T01:00:00Z,30.2583,-88.2131,14.26,1111122 
DISL,ioos:station:DISL:KATA:1,2011-11-04T01:30:00Z,30.2583,-88.2131,13.48,1111122 
DISL,ioos:station:DISL:KATA:1,2011-11-04T02:00:00Z,30.2583,-88.2131,12.77,1111122 
DISL,ioos:station:DISL:KATA:1,2011-11-04T02:30:00Z,30.2583,-88.2131,12.61,1111122 
DISL,ioos:station:DISL:KATA:1,2011-11-04T03:00:00Z,30.2583,-88.2131,12.0,1111122 
DISL,ioos:station:DISL:KATA:1,2011-11-04T03:30:00Z,30.2583,-88.2131,11.8,1111122 
DISL,ioos:station:DISL:KATA:1,2011-11-04T04:00:00Z,30.2583,-88.2131,11.77,1111122 
DISL,ioos:station:DISL:KATA:1,2011-11-04T04:30:00Z,30.2583,-88.2131,12.11,1111122 
DISL,ioos:station:DISL:KATA:1,2011-11-04T05:00:00Z,30.2583,-88.2131,11.53,1111122 
DISL,ioos:station:DISL:KATA:1,2011-11-04T05:30:00Z,30.2583,-88.2131,11.56,1111122 
DISL,ioos:station:DISL:KATA:1,2011-11-04T06:00:00Z,30.2583,-88.2131,11.19,1111122 
DISL,ioos:station:DISL:KATA:1,2011-11-04T06:30:00Z,30.2583,-88.2131,11.23,1111122 
DISL,ioos:station:DISL:KATA:1,2011-11-04T07:00:00Z,30.2583,-88.2131,11.26,1111122 
DISL,ioos:station:DISL:KATA:1,2011-11-04T07:30:00Z,30.2583,-88.2131,11.06,1111122 
DISL,ioos:station:DISL:KATA:1,2011-11-04T08:00:00Z,30.2583,-88.2131,10.96,1111122 
DISL,ioos:station:DISL:KATA:1,2011-11-04T08:30:00Z,30.2583,-88.2131,10.92,1111122 
DISL,ioos:station:DISL:KATA:1,2011-11-04T09:00:00Z,30.2583,-88.2131,10.58,1111122 
DISL,ioos:station:DISL:KATA:1,2011-11-04T09:30:00Z,30.2583,-88.2131,10.51,1111122 
DISL,ioos:station:DISL:KATA:1,2011-11-04T10:00:00Z,30.2583,-88.2131,10.14,1111122 
DISL,ioos:station:DISL:KATA:1,2011-11-04T10:30:00Z,30.2583,-88.2131,10.01,1111122 
DISL,ioos:station:DISL:KATA:1,2011-11-04T11:00:00Z,30.2583,-88.2131,9.47,1111122 
DISL,ioos:station:DISL:KATA:1,2011-11-04T11:30:00Z,30.2583,-88.2131,9.27,1111122 
DISL,ioos:station:DISL:KATA:1,2011-11-04T12:00:00Z,30.2583,-88.2131,9.41,1111122 
DISL,ioos:station:DISL:KATA:1,2011-11-04T12:30:00Z,30.2583,-88.2131,9.37,1111122 
DISL,ioos:station:DISL:KATA:1,2011-11-04T13:00:00Z,30.2583,-88.2131,9.61,1111122 
DISL,ioos:station:DISL:KATA:1,2011-11-04T13:30:00Z,30.2583,-88.2131,9.43,1111122 
DISL,ioos:station:DISL:KATA:1,2011-11-04T14:00:00Z,30.2583,-88.2131,9.6,1111122 
DISL,ioos:station:DISL:KATA:1,2011-11-04T14:30:00Z,30.2583,-88.2131,9.46,1111122 
DISL,ioos:station:DISL:KATA:1,2011-11-04T15:00:00Z,30.2583,-88.2131,9.52,1111122 
DISL,ioos:station:DISL:KATA:1,2011-11-04T15:30:00Z,30.2583,-88.2131,10.03,1111122 
DISL,ioos:station:DISL:KATA:1,2011-11-04T16:00:00Z,30.2583,-88.2131,11.15,1111122 
DISL,ioos:station:DISL:KATA:1,2011-11-04T16:30:00Z,30.2583,-88.2131,12.4,1111122 
DISL,ioos:station:DISL:KATA:1,2011-11-04T17:00:00Z,30.2583,-88.2131,12.77,1111122 
DISL,ioos:station:DISL:KATA:1,2011-11-04T17:30:00Z,30.2583,-88.2131,12.43,1111122 
DISL,ioos:station:DISL:KATA:1,2011-11-04T18:00:00Z,30.2583,-88.2131,12.46,1111122 
DISL,ioos:station:DISL:KATA:1,2011-11-04T18:30:00Z,30.2583,-88.2131,13.31,1111122 
DISL,ioos:station:DISL:KATA:1,2011-11-04T19:00:00Z,30.2583,-88.2131,13.79,1111122 
DISL,ioos:station:DISL:KATA:1,2011-11-04T19:30:00Z,30.2583,-88.2131,14.4,1111122 
DISL,ioos:station:DISL:KATA:1,2011-11-04T20:00:00Z,30.2583,-88.2131,14.97,1111122 
DISL,ioos:station:DISL:KATA:1,2011-11-04T20:30:00Z,30.2583,-88.2131,15.33,1111122 
DISL,ioos:station:DISL:KATA:1,2011-11-04T21:00:00Z,30.2583,-88.2131,15.64,1111122 
DISL,ioos:station:DISL:KATA:1,2011-11-04T21:30:00Z,30.2583,-88.2131,15.81,1111122 
DISL,ioos:station:DISL:KATA:1,2011-11-04T22:00:00Z,30.2583,-88.2131,16.21,1111122 
DISL,ioos:station:DISL:KATA:1,2011-11-04T22:30:00Z,30.2583,-88.2131,16.35,1111122 
DISL,ioos:station:DISL:KATA:1,2011-11-04T23:00:00Z,30.2583,-88.2131,16.08,1111122 
DISL,ioos:station:DISL:KATA:1,2011-11-04T23:30:00Z,30.2583,-88.2131,15.84,1111122 
DISL,ioos:station:DISL:KATA:1,2011-11-05T00:00:00Z,30.2583,-88.2131,15.47,1111122 
DISL,ioos:station:DISL:KATA:1,2011-11-05T00:30:00Z,30.2583,-88.2131,15.38,1111122 
DISL,ioos:station:DISL:KATA:1,2011-11-05T01:00:00Z,30.2583,-88.2131,15.28,1111122 
DISL,ioos:station:DISL:KATA:1,2011-11-05T01:30:00Z,30.2583,-88.2131,15.38,1111122 
DISL,ioos:station:DISL:KATA:1,2011-11-05T02:00:00Z,30.2583,-88.2131,15.08,1111122 
DISL,ioos:station:DISL:KATA:1,2011-11-05T02:30:00Z,30.2583,-88.2131,14.67,1111122 
DISL,ioos:station:DISL:KATA:1,2011-11-05T03:00:00Z,30.2583,-88.2131,14.23,1111122 
DISL,ioos:station:DISL:KATA:1,2011-11-05T03:30:00Z,30.2583,-88.2131,13.96,1111122 
DISL,ioos:station:DISL:KATA:1,2011-11-05T04:00:00Z,30.2583,-88.2131,13.55,1111122 
DISL,ioos:station:DISL:KATA:1,2011-11-05T04:30:00Z,30.2583,-88.2131,13.18,1111122 
DISL,ioos:station:DISL:KATA:1,2011-11-05T05:00:00Z,30.2583,-88.2131,12.57,1111122 
DISL,ioos:station:DISL:KATA:1,2011-11-05T05:30:00Z,30.2583,-88.2131,12.3,1111122 
DISL,ioos:station:DISL:KATA:1,2011-11-05T06:00:00Z,30.2583,-88.2131,11.97,1111122 
DISL,ioos:station:DISL:KATA:1,2011-11-05T06:30:00Z,30.2583,-88.2131,11.73,1111122 
DISL,ioos:station:DISL:KATA:1,2011-11-05T07:00:00Z,30.2583,-88.2131,11.7,1111122 
DISL,ioos:station:DISL:KATA:1,2011-11-05T07:30:00Z,30.2583,-88.2131,11.6,1111122 
DISL,ioos:station:DISL:KATA:1,2011-11-05T08:00:00Z,30.2583,-88.2131,11.36,1111122 
DISL,ioos:station:DISL:KATA:1,2011-11-05T08:30:00Z,30.2583,-88.2131,11.23,1111122 
DISL,ioos:station:DISL:KATA:1,2011-11-05T09:00:00Z,30.2583,-88.2131,11.64,1111122 
DISL,ioos:station:DISL:KATA:1,2011-11-05T09:30:00Z,30.2583,-88.2131,11.77,1111122 
DISL,ioos:station:DISL:KATA:1,2011-11-05T10:00:00Z,30.2583,-88.2131,11.9,1111122 
DISL,ioos:station:DISL:KATA:1,2011-11-05T10:30:00Z,30.2583,-88.2131,13.53,1111122 
DISL,ioos:station:DISL:KATA:1,2011-11-05T11:00:00Z,30.2583,-88.2131,13.63,1111122 
DISL,ioos:station:DISL:KATA:1,2011-11-05T11:30:00Z,30.2583,-88.2131,13.52,1111122 
DISL,ioos:station:DISL:KATA:1,2011-11-05T12:00:00Z,30.2583,-88.2131,13.76,1111122 
DISL,ioos:station:DISL:KATA:1,2011-11-05T12:30:00Z,30.2583,-88.2131,13.52,1111122 
DISL,ioos:station:DISL:KATA:1,2011-11-05T13:00:00Z,30.2583,-88.2131,14.0,1111122 
DISL,ioos:station:DISL:KATA:1,2011-11-05T13:30:00Z,30.2583,-88.2131,14.13,1111122 
DISL,ioos:station:DISL:KATA:1,2011-11-05T14:00:00Z,30.2583,-88.2131,14.6,1111122 
DISL,ioos:station:DISL:KATA:1,2011-11-05T14:30:00Z,30.2583,-88.2131,15.48,1111122 
DISL,ioos:station:DISL:KATA:1,2011-11-05T15:00:00Z,30.2583,-88.2131,15.87,1111122 
DISL,ioos:station:DISL:KATA:1,2011-11-05T15:30:00Z,30.2583,-88.2131,16.38,1111122 
DISL,ioos:station:DISL:KATA:1,2011-11-05T16:00:00Z,30.2583,-88.2131,16.75,1111122 
DISL,ioos:station:DISL:KATA:1,2011-11-05T16:30:00Z,30.2583,-88.2131,17.3,1111122 
DISL,ioos:station:DISL:KATA:1,2011-11-05T17:00:00Z,30.2583,-88.2131,17.7,1111122 
DISL,ioos:station:DISL:KATA:1,2011-11-05T17:30:00Z,30.2583,-88.2131,18.17,1111122 
DISL,ioos:station:DISL:KATA:1,2011-11-05T18:00:00Z,30.2583,-88.2131,17.59,1111122 
DISL,ioos:station:DISL:KATA:1,2011-11-05T18:30:00Z,30.2583,-88.2131,17.83,1111122 
DISL,ioos:station:DISL:KATA:1,2011-11-05T19:00:00Z,30.2583,-88.2131,17.25,1111122 
DISL,ioos:station:DISL:KATA:1,2011-11-05T19:30:00Z,30.2583,-88.2131,17.46,1111122 
DISL,ioos:station:DISL:KATA:1,2011-11-05T20:00:00Z,30.2583,-88.2131,17.73,1111122 
DISL,ioos:station:DISL:KATA:1,2011-11-05T20:30:00Z,30.2583,-88.2131,18.0,1111122 
DISL,ioos:station:DISL:KATA:1,2011-11-05T21:00:00Z,30.2583,-88.2131,18.14,1111122 
DISL,ioos:station:DISL:KATA:1,2011-11-05T21:30:00Z,30.2583,-88.2131,18.24,1111122 
DISL,ioos:station:DISL:KATA:1,2011-11-05T22:00:00Z,30.2583,-88.2131,18.51,1111122 
DISL,ioos:station:DISL:KATA:1,2011-11-05T22:30:00Z,30.2583,-88.2131,18.61,1111122 
DISL,ioos:station:DISL:KATA:1,2011-11-05T23:00:00Z,30.2583,-88.2131,18.41,1111122 
DISL,ioos:station:DISL:KATA:1,2011-11-05T23:30:00Z,30.2583,-88.2131,18.35,1111122 
DISL,ioos:station:DISL:KATA:1,2011-11-06T00:00:00Z,30.2583,-88.2131,18.59,1111122 
DISL,ioos:station:DISL:KATA:1,2011-11-06T00:30:00Z,30.2583,-88.2131,18.76,1111122 
DISL,ioos:station:DISL:KATA:1,2011-11-06T01:00:00Z,30.2583,-88.2131,18.52,1111122 
DISL,ioos:station:DISL:KATA:1,2011-11-06T01:30:00Z,30.2583,-88.2131,17.98,1111122 
DISL,ioos:station:DISL:KATA:1,2011-11-06T02:00:00Z,30.2583,-88.2131,17.64,1111122 
DISL,ioos:station:DISL:KATA:1,2011-11-06T02:30:00Z,30.2583,-88.2131,17.23,1111122 
DISL,ioos:station:DISL:KATA:1,2011-11-06T03:00:00Z,30.2583,-88.2131,16.99,1111122 
DISL,ioos:station:DISL:KATA:1,2011-11-06T03:30:00Z,30.2583,-88.2131,17.0,1111122 
DISL,ioos:station:DISL:KATA:1,2011-11-06T04:00:00Z,30.2583,-88.2131,17.06,1111122 
DISL,ioos:station:DISL:KATA:1,2011-11-06T04:30:00Z,30.2583,-88.2131,17.03,1111122 
DISL,ioos:station:DISL:KATA:1,2011-11-06T05:00:00Z,30.2583,-88.2131,16.69,1111122 
DISL,ioos:station:DISL:KATA:1,2011-11-06T05:30:00Z,30.2583,-88.2131,16.35,1111122 
DISL,ioos:station:DISL:KATA:1,2011-11-06T06:00:00Z,30.2583,-88.2131,16.11,1111122 
DISL,ioos:station:DISL:KATA:1,2011-11-06T06:30:00Z,30.2583,-88.2131,16.04,1111122 
DISL,ioos:station:DISL:KATA:1,2011-11-06T07:00:00Z,30.2583,-88.2131,15.84,1111122 
DISL,ioos:station:DISL:KATA:1,2011-11-06T07:30:00Z,30.2583,-88.2131,15.84,1111122 
DISL,ioos:station:DISL:KATA:1,2011-11-06T08:00:00Z,30.2583,-88.2131,15.67,1111122 
DISL,ioos:station:DISL:KATA:1,2011-11-06T08:30:00Z,30.2583,-88.2131,15.44,1111122 
DISL,ioos:station:DISL:KATA:1,2011-11-06T09:00:00Z,30.2583,-88.2131,15.07,1111122 
DISL,ioos:station:DISL:KATA:1,2011-11-06T09:30:00Z,30.2583,-88.2131,14.7,1111122 
DISL,ioos:station:DISL:KATA:1,2011-11-06T10:00:00Z,30.2583,-88.2131,14.53,1111122 
DISL,ioos:station:DISL:KATA:1,2011-11-06T10:30:00Z,30.2583,-88.2131,14.57,1111122 
DISL,ioos:station:DISL:KATA:1,2011-11-06T11:00:00Z,30.2583,-88.2131,14.5,1111122 
DISL,ioos:station:DISL:KATA:1,2011-11-06T11:30:00Z,30.2583,-88.2131,14.5,1111122 
DISL,ioos:station:DISL:KATA:1,2011-11-06T12:00:00Z,30.2583,-88.2131,14.8,1111122 
DISL,ioos:station:DISL:KATA:1,2011-11-06T12:30:00Z,30.2583,-88.2131,14.3,1111122 
DISL,ioos:station:DISL:KATA:1,2011-11-06T13:00:00Z,30.2583,-88.2131,14.36,1111122 
DISL,ioos:station:DISL:KATA:1,2011-11-06T13:30:00Z,30.2583,-88.2131,13.75,1111122 
DISL,ioos:station:DISL:KATA:1,2011-11-06T14:00:00Z,30.2583,-88.2131,13.65,1111122 
DISL,ioos:station:DISL:KATA:1,2011-11-06T14:30:00Z,30.2583,-88.2131,14.53,1111122 
DISL,ioos:station:DISL:KATA:1,2011-11-06T15:00:00Z,30.2583,-88.2131,14.67,1111122 
DISL,ioos:station:DISL:KATA:1,2011-11-06T15:30:00Z,30.2583,-88.2131,14.63,1111122 
DISL,ioos:station:DISL:KATA:1,2011-11-06T16:00:00Z,30.2583,-88.2131,14.52,1111122 
DISL,ioos:station:DISL:KATA:1,2011-11-06T16:30:00Z,30.2583,-88.2131,15.64,1111122 
DISL,ioos:station:DISL:KATA:1,2011-11-06T17:00:00Z,30.2583,-88.2131,16.69,1111122 
DISL,ioos:station:DISL:KATA:1,2011-11-06T17:30:00Z,30.2583,-88.2131,16.75,1111122 
DISL,ioos:station:DISL:KATA:1,2011-11-06T18:00:00Z,30.2583,-88.2131,17.26,1111122 
DISL,ioos:station:DISL:KATA:1,2011-11-06T18:30:00Z,30.2583,-88.2131,17.94,1111122 
DISL,ioos:station:DISL:KATA:1,2011-11-06T19:00:00Z,30.2583,-88.2131,18.14,1111122 
DISL,ioos:station:DISL:KATA:1,2011-11-06T19:30:00Z,30.2583,-88.2131,18.17,1111122 
DISL,ioos:station:DISL:KATA:1,2011-11-06T20:00:00Z,30.2583,-88.2131,17.93,1111122 
DISL,ioos:station:DISL:KATA:1,2011-11-06T20:30:00Z,30.2583,-88.2131,18.24,1111122 
DISL,ioos:station:DISL:KATA:1,2011-11-06T21:00:00Z,30.2583,-88.2131,18.61,1111122 
DISL,ioos:station:DISL:KATA:1,2011-11-06T21:30:00Z,30.2583,-88.2131,18.78,1111122 
DISL,ioos:station:DISL:KATA:1,2011-11-06T22:00:00Z,30.2583,-88.2131,19.05,1111122 
DISL,ioos:station:DISL:KATA:1,2011-11-06T22:30:00Z,30.2583,-88.2131,18.95,1111122 
DISL,ioos:station:DISL:KATA:1,2011-11-06T23:00:00Z,30.2583,-88.2131,18.92,1111122 
DISL,ioos:station:DISL:KATA:1,2011-11-06T23:30:00Z,30.2583,-88.2131,18.92,1111122 